| time (UTC) | temp F | wind direction | speed MPH | gust MPH | rain 1hr in | rain 24hr in | rain mn in | humidity % | barometer mb |
| 20260831194100 | 76 | 106 | 1.0 | 5.0 | 0.00 | 0.12 | 0.04 | 61 | 1019.4 |
| 20260831193559 | 76 | 113 | 1.0 | 5.0 | 0.00 | 0.12 | 0.04 | 59 | 1019.4 |
| 20260831193104 | 77 | 65 | 2.0 | 5.0 | 0.00 | 0.12 | 0.04 | 57 | 1019.4 |
| 20260831192600 | 77 | 81 | 1.0 | 4.0 | 0.00 | 0.12 | 0.04 | 58 | 1019.6 |
| 20260831192101 | 76 | 59 | 2.0 | 4.0 | 0.00 | 0.12 | 0.04 | 60 | 1019.6 |
| 20260831191605 | 74 | 83 | 1.0 | 3.0 | 0.00 | 0.12 | 0.04 | 66 | 1019.6 |
| 20260831191100 | 75 | 0 | 1.0 | 3.0 | 0.00 | 0.12 | 0.04 | 60 | 1019.7 |
| 20260831190600 | 75 | 79 | 0.0 | 3.0 | 0.00 | 0.12 | 0.04 | 61 | 1019.7 |
| 20260831190109 | 76 | 85 | 0.0 | 3.0 | 0.00 | 0.12 | 0.04 | 61 | 1019.8 |
| 20260831185559 | 75 | 254 | 0.0 | 2.0 | 0.00 | 0.12 | 0.04 | 58 | 1020.0 |
| 20260831185059 | 75 | 0 | 0.0 | 2.0 | 0.00 | 0.12 | 0.04 | 62 | 1020.0 |
| 20260831184601 | 75 | 0 | 0.0 | 1.0 | 0.00 | 0.12 | 0.04 | 62 | 1020.0 |
| 20260831184059 | 75 | 0 | 0.0 | 2.0 | 0.00 | 0.12 | 0.04 | 66 | 1020.2 |
| 20260831183601 | 75 | 0 | 0.0 | 2.0 | 0.00 | 0.12 | 0.04 | 61 | 1020.3 |
| 20260831183107 | 75 | 352 | 0.0 | 3.0 | 0.00 | 0.12 | 0.04 | 63 | 1020.3 |
| 20260831182600 | 75 | 0 | 0.0 | 4.0 | 0.00 | 0.12 | 0.04 | 62 | 1020.3 |
| 20260831182100 | 75 | 84 | 1.0 | 4.0 | 0.00 | 0.12 | 0.04 | 60 | 1020.2 |
| 20260831181615 | 75 | 80 | 1.0 | 4.0 | 0.00 | 0.12 | 0.04 | 61 | 1020.3 |
| 20260831181102 | 74 | 76 | 0.0 | 4.0 | 0.00 | 0.12 | 0.04 | 61 | 1020.3 |
| 20260831180559 | 75 | 96 | 1.0 | 3.0 | 0.00 | 0.12 | 0.04 | 61 | 1020.3 |
| 20260831180112 | 75 | 69 | 1.0 | 3.0 | 0.00 | 0.12 | 0.04 | 59 | 1020.3 |
| 20260831175600 | 74 | 79 | 1.0 | 3.0 | 0.00 | 0.12 | 0.04 | 62 | 1020.5 |
| 20260831175100 | 74 | 0 | 0.0 | 4.0 | 0.00 | 0.12 | 0.04 | 59 | 1020.6 |
| 20260831174613 | 74 | 0 | 0.0 | 4.0 | 0.00 | 0.12 | 0.04 | 61 | 1020.6 |
| 20260831174100 | 75 | 117 | 1.0 | 4.0 | 0.00 | 0.12 | 0.04 | 60 | 1020.6 |
| 20260831173600 | 74 | 0 | 0.0 | 3.0 | 0.00 | 0.12 | 0.04 | 61 | 1020.6 |
| 20260831173131 | 74 | 0 | 0.0 | 6.0 | 0.00 | 0.12 | 0.04 | 65 | 1020.7 |
| 20260831172559 | 74 | 28 | 0.0 | 6.0 | 0.00 | 0.12 | 0.04 | 64 | 1020.6 |
| 20260831172059 | 74 | 98 | 2.0 | 6.0 | 0.00 | 0.12 | 0.04 | 64 | 1020.5 |
| 20260831171610 | 74 | 86 | 1.0 | 3.0 | 0.00 | 0.12 | 0.04 | 63 | 1020.7 |
| 20260831171101 | 73 | 0 | 0.0 | 1.0 | 0.00 | 0.12 | 0.04 | 64 | 1020.7 |
| 20260831170601 | 72 | 0 | 0.0 | 3.0 | 0.00 | 0.12 | 0.04 | 63 | 1020.7 |
| 20260831170121 | 72 | 0 | 1.0 | 3.0 | 0.00 | 0.12 | 0.04 | 64 | 1020.7 |
| 20260831165600 | 72 | 74 | 1.0 | 2.0 | 0.00 | 0.12 | 0.04 | 66 | 1020.8 |
| 20260831165059 | 72 | 0 | 1.0 | 3.0 | 0.00 | 0.12 | 0.04 | 64 | 1020.9 |
| 20260831164619 | 72 | 80 | 0.0 | 3.0 | 0.00 | 0.12 | 0.04 | 67 | 1020.8 |
| 20260831164100 | 72 | 294 | 0.0 | 2.0 | 0.00 | 0.12 | 0.04 | 65 | 1020.9 |
| 20260831163600 | 72 | 0 | 0.0 | 3.0 | 0.00 | 0.12 | 0.04 | 66 | 1020.9 |
| 20260831163106 | 71 | 0 | 0.0 | 4.0 | 0.00 | 0.12 | 0.04 | 66 | 1021.0 |
| 20260831162600 | 72 | 0 | 1.0 | 4.0 | 0.00 | 0.12 | 0.04 | 64 | 1021.1 |
| 20260831162100 | 71 | 106 | 1.0 | 3.0 | 0.00 | 0.12 | 0.04 | 67 | 1021.1 |
| 20260831161604 | 71 | 106 | 0.0 | 3.0 | 0.00 | 0.12 | 0.04 | 69 | 1021.1 |
| 20260831161102 | 71 | 0 | 0.0 | 3.0 | 0.00 | 0.12 | 0.04 | 66 | 1021.1 |
| 20260831160559 | 71 | 14 | 0.0 | 3.0 | 0.00 | 0.12 | 0.04 | 65 | 1021.0 |
| 20260831160105 | 71 | 0 | 0.0 | 3.0 | 0.00 | 0.12 | 0.04 | 65 | 1021.1 |
| 20260831155559 | 71 | 71 | 0.0 | 3.0 | 0.00 | 0.12 | 0.04 | 63 | 1021.1 |
| 20260831155100 | 71 | 68 | 0.0 | 3.0 | 0.00 | 0.12 | 0.04 | 70 | 1021.1 |
| 20260831154625 | 71 | 106 | 0.0 | 3.0 | 0.00 | 0.12 | 0.04 | 67 | 1021.3 |
| 20260831154102 | 71 | 76 | 0.0 | 3.0 | 0.00 | 0.12 | 0.04 | 69 | 1021.3 |
| 20260831153559 | 71 | 0 | 1.0 | 3.0 | 0.00 | 0.12 | 0.04 | 67 | 1021.5 |
| 20260831153104 | 71 | 0 | 0.0 | 3.0 | 0.00 | 0.12 | 0.04 | 67 | 1021.4 |
| 20260831152559 | 71 | 0 | 0.0 | 3.0 | 0.00 | 0.12 | 0.04 | 69 | 1021.5 |
| 20260831152102 | 71 | 0 | 0.0 | 3.0 | 0.00 | 0.12 | 0.04 | 68 | 1021.5 |
| 20260831151600 | 71 | 0 | 0.0 | 3.0 | 0.00 | 0.12 | 0.04 | 68 | 1021.5 |
| 20260831151100 | 71 | 342 | 0.0 | 6.0 | 0.00 | 0.12 | 0.04 | 68 | 1021.5 |
| 20260831150601 | 72 | 56 | 2.0 | 6.0 | 0.00 | 0.12 | 0.04 | 67 | 1021.5 |
| 20260831150109 | 71 | 73 | 1.0 | 4.0 | 0.00 | 0.12 | 0.04 | 69 | 1021.4 |
| 20260831145600 | 71 | 39 | 1.0 | 6.0 | 0.00 | 0.12 | 0.04 | 68 | 1021.4 |
| 20260831145100 | 71 | 5 | 1.0 | 6.0 | 0.00 | 0.12 | 0.04 | 69 | 1021.3 |
| 20260831144605 | 71 | 344 | 0.0 | 5.0 | 0.00 | 0.12 | 0.04 | 70 | 1021.3 |
| 20260831144100 | 71 | 85 | 1.0 | 6.0 | 0.00 | 0.12 | 0.04 | 70 | 1021.4 |
| 20260831143602 | 71 | 48 | 2.0 | 6.0 | 0.00 | 0.12 | 0.04 | 72 | 1021.4 |
| 20260831143110 | 71 | 96 | 1.0 | 4.0 | 0.00 | 0.12 | 0.04 | 73 | 1021.4 |
| 20260831142600 | 70 | 98 | 1.0 | 4.0 | 0.00 | 0.12 | 0.04 | 73 | 1021.4 |
| 20260831142059 | 70 | 88 | 1.0 | 6.0 | 0.00 | 0.12 | 0.04 | 74 | 1021.5 |
| 20260831141608 | 70 | 126 | 1.0 | 6.0 | 0.00 | 0.12 | 0.04 | 73 | 1021.4 |
| 20260831141059 | 70 | 113 | 2.0 | 8.0 | 0.00 | 0.12 | 0.04 | 73 | 1021.3 |
| 20260831140600 | 70 | 38 | 2.0 | 8.0 | 0.00 | 0.12 | 0.04 | 74 | 1021.3 |
| 20260831135601 | 69 | 65 | 1.0 | 6.0 | 0.00 | 0.12 | 0.04 | 77 | 1021.3 |
| 20260831135101 | 68 | 13 | 1.0 | 6.0 | 0.00 | 0.12 | 0.04 | 76 | 1021.3 |
| 20260831134605 | 69 | 15 | 1.0 | 6.0 | 0.00 | 0.12 | 0.04 | 76 | 1021.3 |
| 20260831134059 | 68 | 71 | 0.0 | 5.0 | 0.00 | 0.12 | 0.04 | 78 | 1021.1 |
| 20260831133559 | 68 | 0 | 1.0 | 5.0 | 0.00 | 0.12 | 0.04 | 77 | 1021.1 |
| 20260831133104 | 68 | 0 | 1.0 | 6.0 | 0.00 | 0.12 | 0.04 | 78 | 1021.1 |
| 20260831132600 | 68 | 80 | 2.0 | 6.0 | 0.00 | 0.12 | 0.04 | 79 | 1021.1 |
| 20260831132100 | 67 | 75 | 1.0 | 8.0 | 0.00 | 0.12 | 0.04 | 78 | 1021.2 |
| 20260831131607 | 67 | 86 | 2.0 | 8.0 | 0.00 | 0.12 | 0.04 | 79 | 1021.3 |
| 20260831131059 | 67 | 82 | 2.0 | 7.0 | 0.00 | 0.12 | 0.04 | 80 | 1021.3 |
| 20260831130602 | 66 | 98 | 2.0 | 6.0 | 0.00 | 0.12 | 0.04 | 82 | 1021.3 |
| 20260831130109 | 66 | 53 | 1.0 | 6.0 | 0.00 | 0.12 | 0.04 | 85 | 1021.3 |
| 20260831125600 | 66 | 87 | 2.0 | 4.0 | 0.00 | 0.12 | 0.04 | 86 | 1021.2 |
| 20260831125103 | 66 | 70 | 1.0 | 4.0 | 0.00 | 0.12 | 0.04 | 88 | 1021.2 |
| 20260831124610 | 65 | 91 | 0.0 | 3.0 | 0.00 | 0.12 | 0.04 | 88 | 1021.1 |
| 20260831124101 | 65 | 0 | 0.0 | 6.0 | 0.00 | 0.12 | 0.04 | 88 | 1021.1 |
| 20260831123600 | 65 | 0 | 0.0 | 6.0 | 0.00 | 0.12 | 0.04 | 89 | 1021.0 |
| 20260831123102 | 65 | 90 | 1.0 | 5.0 | 0.00 | 0.12 | 0.04 | 90 | 1021.0 |
| 20260831122600 | 65 | 28 | 2.0 | 6.0 | 0.00 | 0.12 | 0.04 | 92 | 1021.0 |
| 20260831122100 | 64 | 67 | 1.0 | 6.0 | 0.00 | 0.12 | 0.04 | 92 | 1020.9 |
| 20260831121604 | 64 | 86 | 2.0 | 6.0 | 0.00 | 0.12 | 0.04 | 93 | 1020.9 |
| 20260831121101 | 64 | 111 | 2.0 | 4.0 | 0.00 | 0.12 | 0.04 | 93 | 1020.8 |
| 20260831120559 | 64 | 98 | 1.0 | 3.0 | 0.00 | 0.12 | 0.04 | 93 | 1020.6 |
| 20260831120105 | 64 | 0 | 1.0 | 3.0 | 0.00 | 0.12 | 0.04 | 94 | 1020.7 |
| 20260831115559 | 64 | 92 | 0.0 | 3.0 | 0.00 | 0.12 | 0.04 | 94 | 1020.8 |
| 20260831115100 | 64 | 0 | 0.0 | 0.0 | 0.00 | 0.12 | 0.04 | 94 | 1020.6 |
| 20260831114606 | 64 | 0 | 0.0 | 0.0 | 0.00 | 0.12 | 0.04 | 95 | 1020.7 |
| 20260831114104 | 63 | 0 | 0.0 | 0.0 | 0.00 | 0.12 | 0.04 | 95 | 1020.7 |
| 20260831113601 | 63 | 0 | 0.0 | 0.0 | 0.00 | 0.12 | 0.04 | 95 | 1020.6 |
| 20260831113104 | 64 | 0 | 0.0 | 1.0 | 0.00 | 0.12 | 0.04 | 95 | 1020.6 |
| 20260831112601 | 64 | 0 | 0.0 | 1.0 | 0.00 | 0.12 | 0.04 | 95 | 1020.5 |
| 20260831112100 | 63 | 0 | 0.0 | 1.0 | 0.00 | 0.12 | 0.04 | 95 | 1020.5 |
| 20260831111627 | 63 | 0 | 0.0 | 1.0 | 0.00 | 0.12 | 0.04 | 95 | 1020.4 |
| 20260831111101 | 63 | 0 | 0.0 | 0.0 | 0.00 | 0.12 | 0.04 | 95 | 1020.4 |
| 20260831110602 | 63 | 0 | 0.0 | 0.0 | 0.01 | 0.12 | 0.04 | 95 | 1020.3 |
| 20260831110106 | 63 | 0 | 0.0 | 0.0 | 0.01 | 0.12 | 0.04 | 95 | 1020.3 |
| 20260831105600 | 62 | 0 | 0.0 | 0.0 | 0.01 | 0.12 | 0.04 | 95 | 1020.2 |
| 20260831105100 | 62 | 0 | 0.0 | 0.0 | 0.01 | 0.12 | 0.04 | 95 | 1020.2 |
| 20260831104619 | 62 | 0 | 0.0 | 0.0 | 0.01 | 0.12 | 0.04 | 95 | 1020.1 |
| 20260831104100 | 62 | 0 | 0.0 | 0.0 | 0.01 | 0.12 | 0.04 | 95 | 1020.1 |
| 20260831103603 | 62 | 0 | 0.0 | 0.0 | 0.01 | 0.12 | 0.04 | 95 | 1020.1 |
| 20260831103108 | 62 | 0 | 0.0 | 0.0 | 0.01 | 0.12 | 0.04 | 95 | 1020.1 |
| 20260831102604 | 62 | 0 | 0.0 | 0.0 | 0.01 | 0.12 | 0.04 | 95 | 1020.0 |
| 20260831102100 | 62 | 0 | 0.0 | 0.0 | 0.01 | 0.12 | 0.04 | 95 | 1019.8 |
| 20260831101626 | 62 | 0 | 0.0 | 0.0 | 0.01 | 0.12 | 0.04 | 95 | 1019.8 |
| 20260831101100 | 62 | 0 | 0.0 | 0.0 | 0.01 | 0.12 | 0.04 | 95 | 1019.8 |
| 20260831100600 | 62 | 0 | 0.0 | 0.0 | 0.00 | 0.11 | 0.03 | 95 | 1019.6 |
| 20260831100111 | 62 | 0 | 0.0 | 0.0 | 0.00 | 0.11 | 0.03 | 95 | 1019.6 |
| 20260831095601 | 62 | 0 | 0.0 | 0.0 | 0.00 | 0.11 | 0.03 | 95 | 1019.5 |
| 20260831095102 | 62 | 0 | 0.0 | 0.0 | 0.00 | 0.11 | 0.03 | 95 | 1019.5 |
| 20260831094618 | 62 | 0 | 0.0 | 0.0 | 0.00 | 0.11 | 0.03 | 95 | 1019.4 |
| 20260831094100 | 62 | 0 | 0.0 | 0.0 | 0.00 | 0.11 | 0.03 | 95 | 1019.4 |
| 20260831093600 | 62 | 0 | 0.0 | 0.0 | 0.00 | 0.11 | 0.03 | 95 | 1019.4 |
| 20260831093100 | 62 | 0 | 0.0 | 0.0 | 0.00 | 0.11 | 0.03 | 95 | 1019.2 |
| 20260831092600 | 62 | 0 | 0.0 | 0.0 | 0.00 | 0.11 | 0.03 | 95 | 1019.3 |
| 20260831092100 | 62 | 0 | 0.0 | 0.0 | 0.00 | 0.11 | 0.03 | 94 | 1019.2 |
| 20260831091620 | 62 | 0 | 0.0 | 0.0 | 0.00 | 0.11 | 0.03 | 94 | 1019.2 |
| 20260831091100 | 62 | 0 | 0.0 | 0.0 | 0.00 | 0.11 | 0.03 | 94 | 1019.2 |
| 20260831090600 | 62 | 0 | 0.0 | 0.0 | 0.00 | 0.11 | 0.03 | 94 | 1019.1 |
| 20260831090107 | 62 | 0 | 0.0 | 0.0 | 0.00 | 0.11 | 0.03 | 95 | 1019.1 |
| 20260831085600 | 63 | 0 | 0.0 | 0.0 | 0.00 | 0.11 | 0.03 | 95 | 1019.0 |
| 20260831085100 | 63 | 0 | 0.0 | 0.0 | 0.00 | 0.11 | 0.03 | 94 | 1019.0 |
| 20260831084605 | 63 | 0 | 0.0 | 0.0 | 0.00 | 0.11 | 0.03 | 94 | 1019.0 |
| 20260831084100 | 63 | 0 | 0.0 | 0.0 | 0.00 | 0.11 | 0.03 | 94 | 1019.0 |
| 20260831083600 | 63 | 0 | 0.0 | 0.0 | 0.00 | 0.11 | 0.03 | 94 | 1018.9 |
| 20260831083106 | 63 | 0 | 0.0 | 0.0 | 0.00 | 0.11 | 0.03 | 94 | 1018.9 |
| 20260831082600 | 63 | 0 | 0.0 | 0.0 | 0.00 | 0.11 | 0.03 | 94 | 1019.0 |
| 20260831082100 | 63 | 0 | 0.0 | 0.0 | 0.00 | 0.11 | 0.03 | 94 | 1018.8 |
| 20260831081606 | 63 | 0 | 0.0 | 0.0 | 0.00 | 0.11 | 0.03 | 94 | 1018.8 |
| 20260831081059 | 63 | 0 | 0.0 | 0.0 | 0.00 | 0.11 | 0.03 | 94 | 1018.7 |
| 20260831080600 | 64 | 0 | 0.0 | 0.0 | 0.00 | 0.11 | 0.03 | 94 | 1018.7 |
| 20260831080104 | 64 | 0 | 0.0 | 1.0 | 0.00 | 0.11 | 0.03 | 94 | 1018.7 |
| 20260831075600 | 64 | 0 | 0.0 | 1.0 | 0.00 | 0.11 | 0.03 | 94 | 1018.6 |
| 20260831075100 | 64 | 0 | 0.0 | 1.0 | 0.00 | 0.11 | 0.03 | 94 | 1018.6 |
| 20260831074605 | 64 | 0 | 0.0 | 1.0 | 0.00 | 0.11 | 0.03 | 94 | 1018.5 |
| 20260831074100 | 64 | 0 | 0.0 | 0.0 | 0.00 | 0.11 | 0.03 | 94 | 1018.5 |
| 20260831073600 | 64 | 0 | 0.0 | 1.0 | 0.00 | 0.11 | 0.03 | 94 | 1018.6 |
| 20260831073102 | 64 | 0 | 0.0 | 1.0 | 0.00 | 0.11 | 0.03 | 94 | 1018.5 |
| 20260831072601 | 64 | 0 | 0.0 | 1.0 | 0.00 | 0.11 | 0.03 | 94 | 1018.5 |
| 20260831072100 | 64 | 0 | 0.0 | 2.0 | 0.00 | 0.11 | 0.03 | 94 | 1018.4 |
| 20260831071605 | 65 | 0 | 0.0 | 2.0 | 0.00 | 0.11 | 0.03 | 94 | 1018.4 |
| 20260831071100 | 65 | 0 | 0.0 | 2.0 | 0.00 | 0.11 | 0.03 | 94 | 1018.3 |
| 20260831070600 | 65 | 0 | 0.0 | 1.0 | 0.00 | 0.11 | 0.03 | 94 | 1018.4 |
| 20260831070106 | 65 | 0 | 0.0 | 1.0 | 0.00 | 0.11 | 0.03 | 94 | 1018.4 |
| 20260831065601 | 65 | 0 | 0.0 | 1.0 | 0.00 | 0.11 | 0.03 | 94 | 1018.3 |
| 20260831065100 | 65 | 0 | 0.0 | 1.0 | 0.00 | 0.11 | 0.03 | 94 | 1018.3 |
| 20260831064612 | 65 | 0 | 0.0 | 0.0 | 0.00 | 0.11 | 0.03 | 94 | 1018.3 |
| 20260831064059 | 65 | 0 | 0.0 | 1.0 | 0.00 | 0.11 | 0.03 | 94 | 1018.2 |
| 20260831063600 | 65 | 0 | 0.0 | 1.0 | 0.00 | 0.11 | 0.03 | 94 | 1018.2 |
| 20260831063103 | 66 | 0 | 0.0 | 2.0 | 0.00 | 0.11 | 0.03 | 94 | 1018.3 |
| 20260831062600 | 66 | 0 | 0.0 | 2.0 | 0.00 | 0.11 | 0.03 | 94 | 1018.1 |
| 20260831062100 | 66 | 0 | 0.0 | 2.0 | 0.00 | 0.11 | 0.03 | 94 | 1018.1 |
| 20260831061606 | 66 | 0 | 0.0 | 0.0 | 0.00 | 0.11 | 0.03 | 94 | 1018.2 |
| 20260831061100 | 66 | 0 | 0.0 | 0.0 | 0.00 | 0.11 | 0.03 | 94 | 1018.2 |
| 20260831060600 | 66 | 0 | 0.0 | 0.0 | 0.00 | 0.11 | 0.03 | 94 | 1018.0 |
| 20260831060107 | 67 | 0 | 0.0 | 0.0 | 0.00 | 0.11 | 0.03 | 94 | 1018.0 |
| 20260831055600 | 67 | 0 | 0.0 | 0.0 | 0.00 | 0.11 | 0.03 | 94 | 1018.1 |
| 20260831055101 | 67 | 0 | 0.0 | 0.0 | 0.00 | 0.11 | 0.03 | 94 | 1018.0 |
| 20260831054604 | 67 | 0 | 0.0 | 0.0 | 0.00 | 0.11 | 0.03 | 94 | 1018.1 |
| 20260831054102 | 67 | 0 | 0.0 | 0.0 | 0.00 | 0.11 | 0.03 | 94 | 1018.0 |
| 20260831053602 | 67 | 0 | 0.0 | 0.0 | 0.00 | 0.11 | 0.03 | 94 | 1018.0 |
| 20260831053107 | 67 | 0 | 0.0 | 0.0 | 0.00 | 0.11 | 0.03 | 93 | 1017.9 |
| 20260831052602 | 68 | 0 | 0.0 | 0.0 | 0.00 | 0.11 | 0.03 | 94 | 1017.9 |
| 20260831052101 | 68 | 0 | 0.0 | 0.0 | 0.00 | 0.11 | 0.03 | 94 | 1017.9 |
| 20260831051605 | 68 | 0 | 0.0 | 0.0 | 0.00 | 0.11 | 0.03 | 93 | 1017.8 |
| 20260831051059 | 68 | 0 | 0.0 | 0.0 | 0.00 | 0.11 | 0.03 | 93 | 1017.6 |
| 20260831050559 | 68 | 0 | 0.0 | 0.0 | 0.00 | 0.11 | 0.03 | 94 | 1017.7 |
| 20260831050115 | 68 | 0 | 0.0 | 0.0 | 0.03 | 0.11 | 0.03 | 93 | 1017.8 |
| 20260831045559 | 68 | 0 | 0.0 | 0.0 | 0.03 | 0.11 | 0.03 | 93 | 1017.7 |
| 20260831045059 | 68 | 0 | 0.0 | 0.0 | 0.03 | 0.11 | 0.03 | 93 | 1017.7 |
| 20260831044619 | 68 | 0 | 0.0 | 0.0 | 0.03 | 0.11 | 0.03 | 93 | 1017.7 |
| 20260831044059 | 68 | 0 | 0.0 | 0.0 | 0.03 | 0.11 | 0.03 | 93 | 1017.8 |
| 20260831043558 | 68 | 0 | 0.0 | 0.0 | 0.03 | 0.11 | 0.03 | 93 | 1017.8 |
| 20260831043101 | 68 | 0 | 0.0 | 3.0 | 0.03 | 0.11 | 0.03 | 93 | 1017.7 |
| 20260831042600 | 68 | 0 | 0.0 | 3.0 | 0.03 | 0.11 | 0.03 | 93 | 1017.8 |
| 20260831042100 | 68 | 0 | 0.0 | 6.0 | 0.03 | 0.11 | 0.03 | 93 | 1017.8 |
| 20260831041615 | 69 | 286 | 1.0 | 7.0 | 0.03 | 0.11 | 0.03 | 93 | 1018.0 |
| 20260831041059 | 69 | 0 | 1.0 | 7.0 | 0.03 | 0.11 | 0.03 | 93 | 1017.9 |
| 20260831040559 | 69 | 360 | 0.0 | 2.0 | 0.03 | 0.11 | 0.03 | 93 | 1017.9 |
| 20260831040107 | 69 | 0 | 0.0 | 0.0 | 0.01 | 0.08 | 0.00 | 93 | 1017.9 |
| 20260831035558 | 69 | 0 | 0.0 | 0.0 | 0.01 | 0.08 | 0.08 | 93 | 1017.9 |
| 20260831035058 | 69 | 0 | 0.0 | 0.0 | 0.05 | 0.08 | 0.08 | 93 | 1017.8 |
| 20260831034606 | 69 | 0 | 0.0 | 0.0 | 0.07 | 0.08 | 0.08 | 93 | 1017.8 |
| 20260831034058 | 69 | 0 | 0.0 | 0.0 | 0.08 | 0.08 | 0.08 | 92 | 1017.8 |
| 20260831033558 | 69 | 0 | 0.0 | 0.0 | 0.08 | 0.08 | 0.08 | 92 | 1017.8 |
| 20260831033106 | 69 | 0 | 0.0 | 0.0 | 0.08 | 0.08 | 0.08 | 92 | 1017.9 |
| 20260831032602 | 69 | 0 | 0.0 | 0.0 | 0.08 | 0.08 | 0.08 | 92 | 1017.9 |
| 20260831032059 | 69 | 0 | 0.0 | 0.0 | 0.08 | 0.08 | 0.08 | 92 | 1018.0 |
| 20260831031608 | 69 | 0 | 0.0 | 0.0 | 0.08 | 0.08 | 0.08 | 92 | 1017.9 |
| 20260831031059 | 69 | 0 | 0.0 | 0.0 | 0.08 | 0.08 | 0.08 | 91 | 1018.0 |
| 20260831030602 | 69 | 0 | 0.0 | 0.0 | 0.08 | 0.08 | 0.08 | 91 | 1017.9 |
| 20260831030106 | 69 | 0 | 0.0 | 0.0 | 0.07 | 0.07 | 0.07 | 91 | 1017.9 |
| 20260831025557 | 70 | 0 | 0.0 | 0.0 | 0.07 | 0.07 | 0.07 | 91 | 1017.8 |
| 20260831025057 | 70 | 0 | 0.0 | 0.0 | 0.03 | 0.03 | 0.03 | 90 | 1018.0 |
| 20260831024627 | 70 | 0 | 0.0 | 1.0 | 0.01 | 0.01 | 0.01 | 90 | 1018.0 |
| 20260831024100 | 70 | 0 | 0.0 | 1.0 | 0.00 | 0.00 | 0.00 | 89 | 1017.9 |
| 20260831023557 | 70 | 0 | 0.0 | 1.0 | 0.00 | 0.00 | 0.00 | 89 | 1018.0 |
| 20260831023106 | 70 | 0 | 0.0 | 0.0 | 0.00 | 0.00 | 0.00 | 89 | 1018.0 |
| 20260831022558 | 70 | 0 | 0.0 | 0.0 | 0.00 | 0.00 | 0.00 | 89 | 1017.9 |
| 20260831022100 | 70 | 0 | 0.0 | 0.0 | 0.00 | 0.00 | 0.00 | 88 | 1018.0 |
| 20260831021619 | 70 | 0 | 0.0 | 0.0 | 0.00 | 0.00 | 0.00 | 88 | 1017.9 |
| 20260831021100 | 70 | 0 | 0.0 | 0.0 | 0.00 | 0.00 | 0.00 | 88 | 1018.0 |
| 20260831020601 | 70 | 0 | 0.0 | 0.0 | 0.00 | 0.00 | 0.00 | 87 | 1017.8 |
| 20260831020118 | 70 | 0 | 0.0 | 0.0 | 0.00 | 0.00 | 0.00 | 87 | 1017.8 |
| 20260831015602 | 70 | 0 | 0.0 | 0.0 | 0.00 | 0.00 | 0.00 | 86 | 1017.8 |
| 20260831015100 | 71 | 0 | 0.0 | 0.0 | 0.00 | 0.00 | 0.00 | 86 | 1017.8 |
| 20260831014611 | 71 | 0 | 0.0 | 0.0 | 0.00 | 0.00 | 0.00 | 85 | 1017.8 |
| 20260831014059 | 71 | 0 | 0.0 | 0.0 | 0.00 | 0.00 | 0.00 | 84 | 1017.8 |
| 20260831013600 | 71 | 0 | 0.0 | 0.0 | 0.00 | 0.00 | 0.00 | 84 | 1017.9 |
| 20260831013109 | 71 | 0 | 0.0 | 0.0 | 0.00 | 0.00 | 0.00 | 84 | 1017.9 |
| 20260831012601 | 71 | 0 | 0.0 | 0.0 | 0.00 | 0.00 | 0.00 | 84 | 1017.8 |
| 20260831012101 | 71 | 0 | 0.0 | 0.0 | 0.00 | 0.00 | 0.00 | 83 | 1017.7 |
| 20260831011613 | 71 | 0 | 0.0 | 0.0 | 0.00 | 0.00 | 0.00 | 83 | 1017.7 |
| 20260831011100 | 71 | 0 | 0.0 | 0.0 | 0.00 | 0.00 | 0.00 | 83 | 1017.7 |
| 20260831010600 | 71 | 0 | 0.0 | 0.0 | 0.00 | 0.00 | 0.00 | 83 | 1017.7 |
| 20260831010107 | 71 | 0 | 0.0 | 0.0 | 0.00 | 0.00 | 0.00 | 82 | 1017.7 |
| 20260831005601 | 71 | 0 | 0.0 | 0.0 | 0.00 | 0.00 | 0.00 | 82 | 1017.6 |
| 20260831005104 | 71 | 0 | 0.0 | 0.0 | 0.00 | 0.00 | 0.00 | 81 | 1017.7 |
| 20260831004603 | 71 | 0 | 0.0 | 0.0 | 0.00 | 0.00 | 0.00 | 81 | 1017.6 |
| 20260831004101 | 71 | 0 | 0.0 | 0.0 | 0.00 | 0.00 | 0.00 | 80 | 1017.6 |
| 20260831003603 | 71 | 0 | 0.0 | 0.0 | 0.00 | 0.00 | 0.00 | 79 | 1017.5 |
| 20260831003107 | 71 | 0 | 0.0 | 0.0 | 0.00 | 0.00 | 0.00 | 78 | 1017.6 |
| 20260831002600 | 71 | 0 | 0.0 | 1.0 | 0.00 | 0.00 | 0.00 | 78 | 1017.6 |
| 20260831002100 | 71 | 0 | 0.0 | 1.0 | 0.00 | 0.00 | 0.00 | 77 | 1017.5 |
| 20260831001604 | 71 | 0 | 0.0 | 0.0 | 0.00 | 0.00 | 0.00 | 77 | 1017.4 |
| 20260831001101 | 71 | 0 | 0.0 | 0.0 | 0.00 | 0.00 | 0.00 | 76 | 1017.4 |
| 20260831000600 | 71 | 0 | 0.0 | 0.0 | 0.00 | 0.00 | 0.00 | 77 | 1017.3 |
| 20260831000105 | 71 | 0 | 0.0 | 0.0 | 0.00 | 0.00 | 0.00 | 76 | 1017.3 |
| 20260830235601 | 71 | 0 | 0.0 | 0.0 | 0.00 | 0.00 | 0.00 | 75 | 1017.2 |
| 20260830235100 | 72 | 0 | 0.0 | 0.0 | 0.00 | 0.00 | 0.00 | 74 | 1017.2 |
| 20260830234612 | 72 | 0 | 0.0 | 0.0 | 0.00 | 0.00 | 0.00 | 73 | 1017.1 |
| 20260830234100 | 72 | 0 | 0.0 | 0.0 | 0.00 | 0.00 | 0.00 | 72 | 1017.2 |
| 20260830233600 | 72 | 0 | 0.0 | 0.0 | 0.00 | 0.00 | 0.00 | 71 | 1017.3 |
| 20260830233102 | 73 | 0 | 0.0 | 0.0 | 0.00 | 0.00 | 0.00 | 70 | 1017.1 |
| 20260830232600 | 72 | 0 | 0.0 | 0.0 | 0.00 | 0.00 | 0.00 | 70 | 1017.3 |
| 20260830232100 | 73 | 0 | 0.0 | 0.0 | 0.00 | 0.00 | 0.00 | 69 | 1017.4 |
| 20260830231606 | 73 | 0 | 0.0 | 2.0 | 0.00 | 0.00 | 0.00 | 69 | 1017.3 |
| 20260830231100 | 73 | 0 | 0.0 | 2.0 | 0.00 | 0.00 | 0.00 | 68 | 1017.3 |
| 20260830230559 | 73 | 0 | 0.0 | 2.0 | 0.00 | 0.00 | 0.00 | 67 | 1017.3 |
| 20260830230103 | 73 | 0 | 0.0 | 2.0 | 0.00 | 0.00 | 0.00 | 68 | 1017.2 |
| 20260830225600 | 73 | 328 | 0.0 | 2.0 | 0.00 | 0.00 | 0.00 | 67 | 1017.3 |
| 20260830225100 | 73 | 0 | 0.0 | 2.0 | 0.00 | 0.00 | 0.00 | 67 | 1017.4 |
| 20260830224616 | 74 | 0 | 0.0 | 2.0 | 0.00 | 0.00 | 0.00 | 66 | 1017.5 |
| 20260830224104 | 74 | 0 | 0.0 | 2.0 | 0.00 | 0.00 | 0.00 | 65 | 1017.5 |
| 20260830223600 | 74 | 194 | 0.0 | 4.0 | 0.00 | 0.00 | 0.00 | 64 | 1017.4 |
| 20260830223103 | 75 | 0 | 0.0 | 4.0 | 0.00 | 0.00 | 0.00 | 63 | 1017.6 |
| 20260830222600 | 75 | 168 | 1.0 | 4.0 | 0.00 | 0.00 | 0.00 | 63 | 1017.7 |
| 20260830222059 | 75 | 253 | 0.0 | 3.0 | 0.00 | 0.00 | 0.00 | 63 | 1017.6 |
| 20260830221601 | 75 | 0 | 0.0 | 3.0 | 0.00 | 0.00 | 0.00 | 63 | 1017.6 |
| 20260830221059 | 74 | 198 | 0.0 | 3.0 | 0.00 | 0.00 | 0.00 | 63 | 1017.6 |
| 20260830220559 | 75 | 192 | 0.0 | 4.0 | 0.00 | 0.00 | 0.00 | 64 | 1017.6 |
| 20260830220104 | 75 | 0 | 0.0 | 4.0 | 0.00 | 0.00 | 0.00 | 62 | 1017.6 |
| 20260830215601 | 75 | 184 | 0.0 | 2.0 | 0.00 | 0.00 | 0.00 | 61 | 1017.6 |
| 20260830215101 | 75 | 0 | 0.0 | 4.0 | 0.00 | 0.00 | 0.00 | 63 | 1017.5 |
| 20260830214607 | 75 | 157 | 0.0 | 4.0 | 0.00 | 0.00 | 0.00 | 62 | 1017.7 |
| 20260830214059 | 75 | 0 | 0.0 | 4.0 | 0.00 | 0.00 | 0.00 | 63 | 1017.7 |
| 20260830213600 | 75 | 0 | 0.0 | 3.0 | 0.00 | 0.00 | 0.00 | 63 | 1017.7 |
| 20260830213112 | 75 | 188 | 0.0 | 4.0 | 0.00 | 0.00 | 0.00 | 66 | 1017.6 |
| 20260830212559 | 76 | 0 | 0.0 | 4.0 | 0.00 | 0.00 | 0.00 | 65 | 1017.6 |
| 20260830212102 | 76 | 0 | 0.0 | 4.0 | 0.00 | 0.00 | 0.00 | 64 | 1017.6 |
| 20260830211607 | 76 | 150 | 0.0 | 2.0 | 0.00 | 0.00 | 0.00 | 64 | 1017.6 |
| 20260830211059 | 76 | 0 | 0.0 | 2.0 | 0.00 | 0.00 | 0.00 | 65 | 1017.6 |
| 20260830210600 | 76 | 0 | 0.0 | 0.0 | 0.00 | 0.00 | 0.00 | 66 | 1017.6 |
| 20260830210104 | 76 | 0 | 0.0 | 0.0 | 0.00 | 0.00 | 0.00 | 64 | 1017.6 |
| 20260830205600 | 76 | 0 | 0.0 | 0.0 | 0.00 | 0.00 | 0.00 | 63 | 1017.7 |
| 20260830205100 | 76 | 0 | 0.0 | 0.0 | 0.00 | 0.00 | 0.00 | 63 | 1017.6 |
| 20260830204606 | 77 | 0 | 0.0 | 0.0 | 0.00 | 0.00 | 0.00 | 62 | 1017.6 |
| 20260830204102 | 77 | 0 | 0.0 | 3.0 | 0.00 | 0.00 | 0.00 | 62 | 1017.7 |
| 20260830203600 | 77 | 0 | 0.0 | 3.0 | 0.00 | 0.00 | 0.00 | 62 | 1017.7 |
| 20260830203101 | 77 | 0 | 0.0 | 3.0 | 0.00 | 0.00 | 0.00 | 62 | 1017.7 |
| 20260830202600 | 77 | 0 | 0.0 | 3.0 | 0.00 | 0.00 | 0.00 | 61 | 1017.6 |
| 20260830202059 | 77 | 0 | 0.0 | 7.0 | 0.00 | 0.00 | 0.00 | 61 | 1017.6 |
| 20260830201614 | 77 | 0 | 0.0 | 7.0 | 0.00 | 0.00 | 0.00 | 63 | 1017.6 |
| 20260830201102 | 77 | 0 | 1.0 | 7.0 | 0.00 | 0.00 | 0.00 | 63 | 1017.7 |
| 20260830200556 | 77 | 0 | 0.0 | 2.0 | 0.00 | 0.00 | 0.00 | 61 | 1017.8 |
| 20260830200103 | 78 | 0 | 0.0 | 4.0 | 0.00 | 0.00 | 0.00 | 61 | 1017.9 |
| 20260830195559 | 78 | 0 | 0.0 | 4.0 | 0.00 | 0.00 | 0.00 | 60 | 1017.9 |
| 20260830195059 | 78 | 274 | 0.0 | 2.0 | 0.00 | 0.00 | 0.00 | 60 | 1018.0 |
| 20260830194602 | 78 | 244 | 0.0 | 3.0 | 0.00 | 0.00 | 0.00 | 58 | 1018.0 |